sat.trackr.live / text

‹ back to catalog

STARLINK-36858

NORAD 68021 · 2026-040G

PAYLOAD ACTIVE UNKNOWN

§ Identity

Operator
Country
US
Launch date
2026-03-01
Launch site
AFWTR
Launch vehicle
Mass (kg)
RCS (m²)

Purposes: comms

External: N2YO · Heavens-Above · Gunter

§ Orbital elements

Epoch: 2026-05-24T20:25:09.329952Z

Period
93.91 min
Inclination
97.2849°
Eccentricity
0.0001726
Mean motion
15.33455957 rev/d
Perigee alt
464.3 km
Apogee alt
466.7 km
Semi-major
6,843.6 km
B*
4.7514e-4
RAAN
93.8540°
Arg perigee
93.3347°
Mean anomaly
266.8094°
Rev number
1,316

§ Raw data

STARLINK-368581 68021U 26040G   26144.85080243  .00015301  00000+0  47514-3 0  99992 68021  97.2849  93.8540 0001726  93.3347 266.8094 15.33455957 13165

JSON: /api/v1/satellites/68021 · /tle

For live sub-satellite position, see the globe view (requires WebGL).

§ Visibility from observer

Set your observer location to see the next 7 days of passes ≥ 10°. The values pass through the URL so the page stays shareable.

No JS? Fill the form by hand. The geolocation button needs JavaScript.